OpenBCM V1.08-5-g2f4a (Linux)

Packet Radio Mailbox

IZ3LSV

[San Dona' di P. JN]

 Login: GUEST





  
I0OJJ  > KEPS     15.07.25 01:40l 343 Lines 16342 Bytes #25 (0) @ AMSAT
BID : ORB25196.1
Read: GUEST
Subj: 2Line Orbital Elements 25196.AMSAT
Path: IZ3LSV<IK6IHL<IK7NXU<HB9ON<HB9ON<PI8ZTM<IR0AAB<I0OJJ
Sent: 250715/0025z @:I0OJJ.ITA.EU [Rome] obcm1.08-10-g596e
From: I0OJJ @ I0OJJ.ITA.EU (Gustavo)
To:   KEPS @ AMSAT
X-Info: This message was generated automatically


QST de W1STR

AMSAT Orbital Elements for Amateur Satellites in TLE Format
From Orbital Analysis Office
New England Sci-Tech STEM Education Center
Natick, MA July 15, 2025
To all radio amateurs


These element sets describe the orbits of various satellites 
in use by the amateur radio community. For details see:
www.amsat.org/keplerian-elements-formats/

A daily update of element sets is available at:
www.amsat.org/tle/daily-bulletin.txt
or without bulletin text:
www.amsat.org/tle/dailytle.txt


AO-07
1 07530U 74089B   25195.78188567 -.00000042  00000-0  26480-4 0  9996
2 07530 101.9936 200.4210 0012585  56.1225 117.2173 12.53690175318471
UO-11
1 14781U 84021B   25195.46811424  .00000873  00000-0  97478-4 0  9995
2 14781  97.7563 161.1521 0006855 211.8961 148.1843 14.89465148206837
AO-27
1 22825U 93061C   25195.74247742  .00000066  00000-0  42208-4 0  9999
2 22825  98.7350 257.4703 0008619  17.8322 342.3161 14.30808750659015
FO-29
1 24278U 96046B   25195.57524123 -.00000003  00000-0  36102-4 0  9999
2 24278  98.5712  84.8581 0348906 251.8846 104.4007 13.53250464427502
NOAA-15
1 25338U 98030A   25195.73002555  .00000145  00000-0  77086-4 0  9992
2 25338  98.5338 220.0129 0009045 254.4604 105.5579 14.26996327413412
GO-32
1 25397U 98043D   25195.53509143  .00000035  00000-0  35362-4 0  9993
2 25397  98.9722 175.3872 0002349  99.3756 260.7687 14.24321963403261
ISS
1 25544U 98067A   25195.86728301  .00008471  00000-0  15331-3 0  9993
2 25544  51.6357 169.8553 0002761  17.1347  68.0876 15.50544586519457
NO-44
1 26931U 01043C   25195.29429258  .00000063  00000-0  54806-4 0  9998
2 26931  67.0510  38.0844 0006259 276.9689  83.0701 14.31748019242070
SO-50
1 27607U 02058C   25195.11019095  .00000823  00000-0  11974-3 0  9993
2 27607  64.5528  93.9416 0060106 326.5266  33.2045 14.81707586214347
CO-55
1 27844U 03031E   25195.60107054  .00000210  00000-0  11043-3 0  9992
2 27844  98.6758 203.4224 0010928  86.5131 273.7297 14.24017976143625
CO-57
1 27848U 03031J   25195.56587602  .00000171  00000-0  94651-4 0  9995
2 27848  98.6786 203.3670 0010782 102.1545 258.0841 14.23349701143349
RS-22
1 27939U 03042A   25195.74877670  .00000696  00000-0  11817-3 0  9999
2 27939  98.3308   6.0557 0010169 257.1197 229.4516 14.72417573166008
CO-58
1 28895U 05043F   25195.34386322  .00001066  00000-0  18162-3 0  9991
2 28895  98.2541 340.1380 0014279 191.9759 168.1110 14.71102658 52051
CO-65
1 32785U 08021C   25195.58730746  .00003406  00000-0  24617-3 0  9994
2 32785  97.7880 167.0195 0011724  94.0569 266.1997 15.04697147934340
CO-66
1 32791U 08021J   25195.48432729  .00008884  00000-0  42319-3 0  9994
2 32791  97.7294 176.3229 0005377  65.3928 294.7865 15.19365368935798
RS-30
1 32953U 08025A   25195.73225387  .00000005  00000-0 -35048-4 0  9996
2 32953  82.5009 205.3172 0018598 332.7138  27.2963 12.43166227777909
NOAA-19
1 33591U 09005A   25195.74115351  .00000146  00000-0  10181-3 0  9999
2 33591  98.9958 260.6406 0012687 263.6771  96.2956 14.13389047847074
SRMSAT
1 37841U 11058D   25195.60254948  .00000365  00000-0  54768-4 0  9996
2 37841  19.9728 302.6153 0011867  89.7811  28.3661 14.11444296710064
ZACUBE-1
1 39417U 13066B   25195.41544085  .00003264  00000-0  28446-3 0  9995
2 39417  97.7810 152.2527 0042293 296.5044  63.1843 14.96917585630124
Delfi-N3xt
1 39428U 13066N   25195.71686749  .00003942  00000-0  40200-3 0  9999
2 39428  97.8328 112.9822 0082549 244.3957 114.8713 14.88738156624482
GOMX-1
1 39430U 13066Q   25195.59658864  .00001447  00000-0  22945-3 0  9999
2 39430  97.6805  52.1071 0133803  80.4503 281.1794 14.67752852620546
LO-74
1 39440U 13066AA  25195.59785608  .00003297  00000-0  33408-3 0  9998
2 39440  97.8505 139.9211 0063404  65.1974 295.5821 14.90125312626656
AO-73
1 39444U 13066AE  25195.44305159  .00005010  00000-0  37331-3 0  9999
2 39444  97.7839 157.4992 0040703 268.5151  91.1411 15.02715587628822
DTUSAT-2
1 40030U 14033W   25195.44839073  .00004273  00000-0  27739-3 0  9995
2 40030  98.0575 168.9658 0007519 310.0169  50.0398 15.08627103601654
EO-80
1 40032U 14033Y   25195.66577044  .00004570  00000-0  29568-3 0  9990
2 40032  98.0455 168.8000 0007063 235.2515 124.8048 15.08704450602182
LILACSAT-2
1 40908U 15049K   25195.71418365  .00008363  00000-0  21436-3 0  9996
2 40908  97.5043 216.9222 0010054  44.8862 315.3195 15.39581750543639
IO-86
1 40931U 15052B   25151.18580175  .00001241  00000-0  78118-4 0  9996
2 40931   6.0006  24.0987 0012733 338.8432  21.1169 14.78805930523047
Horyu-4
1 41340U 16012D   25195.53253662  .00016188  00000-0  41413-3 0  9996
2 41340  30.9960 256.6593 0006500  70.8099 289.3250 15.38124524518177
Lapan A3
1 41603U 16040E   25195.75313927  .00002582  00000-0  91081-4 0  9994
2 41603  97.1373 198.9849 0012256 136.9094 223.3109 15.30052260503161
CAS-2T
1 41847U 16066G   25195.61738544  .00000965  00000-0  14461-3 0  9992
2 41847  98.4192 269.7713 0346879  72.5996 291.2808 14.43584485456077
CAS-4B
1 42759U 17034B   25195.75008205  .00059573  00000-0  52445-3 0  9993
2 42759  43.0053 111.5895 0020532 181.8402 178.2392 15.67626290448114
CAS-4A
1 42761U 17034D   25195.75139209  .00067532  00000-0  55460-3 0  9999
2 42761  43.0091 108.3077 0021742 186.6732 173.3849 15.69232791448145
TechnoSat
1 42829U 17042E   25195.49106900  .00002699  00000-0  21053-3 0  9990
2 42829  97.3865   2.5241 0016949 158.0227 202.1729 15.01858346435964
AO-91
1 43017U 17073E   25195.63280879  .00007368  00000-0  37202-3 0  9999
2 43017  97.5207  65.5170 0172748  47.6729 313.8986 15.05228944414484
S-Net D
1 43186U 18014G   25195.64099354  .00002893  00000-0  17168-3 0  9996
2 43186  97.5588  98.1905 0010845 102.3771 257.8674 15.12085602407670
S-Net B
1 43187U 18014H   25195.71303262  .00002911  00000-0  17283-3 0  9990
2 43187  97.5595  98.2354 0011586  98.3015 261.9530 15.12066358407681
S-Net A
1 43188U 18014J   25195.31038691  .00002891  00000-0  17155-3 0  9993
2 43188  97.5604  97.9915 0011455 100.1139 260.1384 15.12088420407622
S-Net C
1 43189U 18014K   25195.45082310  .00003013  00000-0  17869-3 0  9995
2 43189  97.5619  98.1505 0012998  93.5191 266.7526 15.12060454406191
Ten-Koh
1 43677U 18084G   25195.46917805  .00001427  00000-0  11777-3 0  9990
2 43677  98.0847   9.1053 0008548 139.1773 221.0091 15.00697740365478
PO-101
1 43678U 18084H   25195.71452720  .00002153  00000-0  18545-3 0  9996
2 43678  98.1062  13.1832 0008962 156.3269 203.8366 14.98459436365646
QO-100
1 43700U 18090A   25195.56438279  .00000152  00000-0  00000-0 0  9996
2 43700   0.0183  54.2905 0002556  97.9906   9.3450  1.00270797 24292
MinXSS-2
1 43758U 18099A   25195.60431266  .00011072  00000-0  42464-3 0  9998
2 43758  97.4994 261.7710 0012006  40.3268 319.8858 15.26601973362314
AO-95
1 43770U 18099N   25195.66301432  .00005982  00000-0  29925-3 0  9999
2 43770  97.4888 253.3684 0012180  92.4077 267.8552 15.17733497361876
RANGE-A
1 43773U 18099R   25195.54141300  .00003802  00000-0  24169-3 0  9999
2 43773  97.4460 242.9308 0012792  75.2801 284.9845 15.09344750361499
MOVE-II
1 43780U 18099Y   25194.80194206  .15913345  26116-5  37118-3 0  9995
2 43780  97.4526 273.8800 0018736 270.1080  89.8075 16.44566529363241
SNUSat 2
1 43782U 18099AA  25195.61623578  .00005060  00000-0  27385-3 0  9990
2 43782  97.4571 249.7859 0012699  40.0750 320.1417 15.15021964361806
SnugLite
1 43784U 18099AC  25195.68546895  .00006460  00000-0  32024-3 0  9996
2 43784  97.4383 249.4871 0004415  54.9851 305.1796 15.18074277361961
ITASat 1
1 43786U 18099AE  25195.59523734  .00004011  00000-0  22843-3 0  9993
2 43786  97.4540 249.1712 0015937  87.0855 273.2200 15.13281446361756
EAGLET 1
1 43790U 18099AJ  25195.62487309  .00003389  00000-0  21619-3 0  9996
2 43790  97.4739 249.0391 0013475  72.8512 287.4191 15.09289371361352
ESEO
1 43792U 18099AL  25195.62793439  .00000828  00000-0  66289-4 0  9990
2 43792  97.4428 241.8345 0013527  45.9144 314.3192 15.02703478361081
CSIM
1 43793U 18099AM  25195.29287391  .00088703  00000-0  38922-3 0  9999
2 43793  97.4757 276.1033 0001651 157.9540 202.1800 15.84371734363124
JO-97
1 43803U 18099AX  25195.71165227  .00008259  00000-0  37015-3 0  9991
2 43803  97.4636 254.4853 0007771  34.8742 325.3001 15.21466130362112
Suomi 100
1 43804U 18099AY  25195.58610763  .00006778  00000-0  32722-3 0  9991
2 43804  97.4701 253.5554 0012680  33.5881 326.6155 15.18919651362019
ISAT
1 43879U 18111D   25195.73589808  .00013348  00000-0  44770-3 0  9997
2 43879  97.5929 110.9286 0010704  78.8720 281.3724 15.30968989357050
UWE-4
1 43880U 18111E   25195.28698955  .00010569  00000-0  40419-3 0  9991
2 43880  97.5874 108.6994 0013881  89.7165 270.5664 15.26689926358920
Sparrow
1 43881U 18111F   25195.55814811  .00014663  00000-0  47232-3 0  9992
2 43881  97.6080 113.7631 0009012 110.2156 250.0054 15.32267012359143
Prox-1
1 44339U 19036A   25195.40249038  .00006949  00000-0  85379-3 0  9997
2 44339  23.9953 192.9553 0007867 110.4088 249.7255 14.80493026323188
SONATE
1 44400U 19038Q   25185.47540524  .09032085  27445-5  31847-3 0  9995
2 44400  97.6609 216.4776 0012462 246.7970 113.2018 16.43248376333575
Taurus 1
1 44530U 19059C   25195.67162466  .00003565  00000-0  65757-3 0  9992
2 44530  98.6109 336.7441 0007936 285.5253  74.5073 14.66156998309085
Duchifat 3
1 44854U 19089C   25195.52139285  .00036140  00000-0  64534-3 0  9998
2 44854  36.9417 132.5931 0006896 253.0550 106.9452 15.49090199308364
TO-108
1 44881U 19093C   25195.71812404  .00000646  00000-0  80543-4 0  9996
2 44881  97.7916 270.6326 0015161 114.2106 246.0695 14.85657121301298
